GFSNE_850_dewp_282.txt.gz
Dewpoint
-5 -4 -4 -2 -1 -2 -1 -1 -0 1 1 -1 -0 -0 1 1 0 -1 -0 1 2 1 1 1 -0 -0 -0 -0 1 1 1 0 -1 -2 -2 -2 1 3
-4 -3 -2 -1 -2 0 0 -0 -0 1 1 0 0 0 1 2 0 -1 -1 1 1 1 1 0 0 0 0 1 1 -1 -1 0 0 0 -1 -2 -1 -0
-3 -2 0 1 -1 1 1 0 -0 0 1 0 0 -1 -0 0 -2 -1 -0 1 1 2 1 2 2 1 1 1 -0 -1 -1 -1 -2 -2 -2 -1 -1 -1
-3 -0 1 -1 0 0 0 1 1 1 0 0 0 -1 -0 -0 0 -1 -0 1 0 1 1 1 0 1 1 0 0 -0 -1 -1 -2 -3 -4 -5 -4 -2
0 0 -0 2 2 0 -0 0 1 1 -0 -0 1 0 0 0 0 0 0 -0 1 0 1 1 1 1 1 0 -1 -1 -1 -1 -2 -3 -6 -10 -11 -12
1 1 2 2 1 -0 -0 -1 0 1 1 1 1 0 -0 -0 -1 -0 0 0 1 0 0 1 0 1 -0 -1 -1 -2 -2 -3 -4 -8 -10 -11 -12 -14
2 2 2 1 0 -1 -0 0 0 -1 -1 -1 -0 -0 -1 -1 -1 0 0 -0 0 -0 0 -0 -0 -0 -1 -1 -2 -3 -3 -4 -8 -11 -13 -14 -16 -18
2 2 0 0 -0 -0 -0 -0 -2 -2 -2 -2 -2 -2 -1 -1 -1 -1 -0 -0 -1 -1 -0 -1 -1 -1 -1 -2 -2 -3 -3 -7 -11 -13 -14 -16 -18 -21
1 0 1 -0 -1 -1 -1 -2 -3 -2 -2 -2 -1 -1 -1 -1 -1 -1 -1 -0 -1 -1 -1 -1 -2 -1 -2 -2 -3 -3 -4 -10 -12 -14 -16 -19 -23 -25
0 -0 -0 -2 -3 -3 -2 -3 -2 -2 -2 -2 -1 -3 -3 -2 -1 -1 -1 -1 -1 -1 -2 -1 -3 -2 -3 -3 -4 -4 -8 -12 -14 -16 -19 -23 -24 -24
-0 -0 -2 -3 -3 -3 -3 -3 -3 -3 -3 -3 -2 -2 -2 -2 -2 -2 -2 -2 -2 -2 -2 -2 -3 -3 -4 -4 -5 -5 -9 -12 -16 -18 -22 -23 -23 -22
-0 -1 -3 -3 -3 -3 -3 -3 -3 -3 -3 -3 -3 -3 -3 -3 -2 -2 -2 -2 -2 -2 -2 -3 -3 -4 -5 -5 -6 -6 -9 -16 -18 -21 -22 -22 -22 -20
-1 -2 -3 -3 -3 -3 -3 -4 -4 -3 -4 -3 -4 -4 -3 -3 -2 -2 -2 -2 -2 -2 -2 -3 -3 -4 -4 -7 -6 -7 -11 -16 -18 -22 -22 -21 -20 -20
-2 -2 -3 -3 -3 -3 -4 -4 -4 -4 -4 -4 -4 -4 -4 -3 -3 -3 -2 -3 -3 -2 -3 -3 -3 -3 -5 -12 -14 -13 -17 -18 -21 -21 -21 -20 -20 -19
-2 -3 -3 -3 -4 -4 -4 -4 -4 -4 -4 -4 -4 -4 -4 -4 -4 -4 -4 -4 -4 -8 -8 -3 -9 -10 -9 -11 -20 -22 -20 -20 -21 -21 -20 -19 -18 -18
-3 -4 -4 -4 -4 -4 -4 -4 -4 -4 -4 -5 -5 -5 -5 -5 -5 -5 -5 -7 -9 -10 -12 -11 -16 -20 -16 -23 -23 -23 -22 -21 -21 -20 -19 -18 -18 -18
-3 -4 -4 -4 -4 -4 -4 -4 -5 -5 -5 -5 -6 -6 -6 -6 -7 -8 -8 -7 -10 -14 -18 -20 -20 -21 -22 -22 -22 -22 -21 -21 -19 -19 -18 -17 -18 -18
-3 -4 -5 -4 -4 -4 -5 -5 -5 -5 -6 -6 -6 -6 -6 -6 -7 -7 -7 -10 -16 -19 -19 -19 -21 -22 -22 -21 -21 -21 -21 -20 -19 -18 -17 -18 -18 -19
-4 -5 -5 -4 -5 -4 -5 -5 -5 -5 -6 -6 -6 -6 -6 -7 -6 -6 -8 -14 -18 -18 -18 -20 -22 -22 -22 -22 -20 -20 -19 -19 -18 -17 -17 -18 -19 -20
-5 -5 -5 -6 -5 -5 -5 -5 -5 -6 -6 -6 -6 -6 -7 -7 -7 -7 -9 -17 -18 -16 -16 -20 -21 -22 -21 -21 -21 -20 -19 -17 -17 -17 -18 -20 -20 -20
-5 -5 -5 -5 -5 -5 -5 -5 -6 -6 -6 -7 -7 -7 -7 -7 -7 -7 -12 -16 -17 -15 -15 -19 -20 -21 -21 -21 -20 -20 -18 -17 -17 -18 -19 -20 -20 -20
-5 -5 -5 -5 -5 -5 -6 -6 -6 -7 -7 -7 -7 -7 -7 -7 -7 -7 -8 -10 -12 -15 -13 -16 -20 -21 -20 -20 -19 -18 -17 -17 -18 -19 -19 -19 -19 -19
-5 -6 -6 -6 -6 -6 -6 -6 -6 -6 -6 -6 -6 -6 -6 -7 -7 -7 -8 -9 -11 -13 -12 -15 -20 -20 -20 -19 -18 -17 -17 -18 -18 -19 -19 -20 -19 -19

GFSNE_850_dewp_288.txt.gz
Dewpoint
4 3 0 -0 -1 -2 -2 -2 -2 -0 0 -0 -1 -1 -1 -2 -1 1 1 1 -2 -2 -1 1 2 1 -0 -1 -1 -1 -1 -2 -3 -3 -3 -2 -2 -1
6 5 3 1 0 -1 -1 -1 -0 1 1 1 1 0 -0 -1 -0 1 1 1 -2 -1 0 1 1 1 1 1 1 0 -0 -1 -2 -1 1 0 0 1
6 6 5 3 2 0 0 0 1 1 1 1 1 0 -0 -1 -0 -1 1 -1 -2 -1 -0 1 1 2 1 0 0 1 -0 -1 -2 -3 -3 -3 -3 -1
5 5 5 5 3 2 1 1 1 1 2 2 1 1 0 -1 -1 -1 -0 -1 -3 -1 -1 0 2 1 -0 1 1 -0 -1 -1 -2 -2 -2 -4 -4 -2
4 4 4 5 4 3 2 2 2 2 2 1 1 1 1 -1 -2 -1 -1 -0 -2 -2 -2 -1 1 1 1 1 0 -1 -1 -2 -2 -2 -3 -5 -8 -8
4 4 4 5 5 3 3 2 2 2 1 1 1 0 0 0 0 0 0 -0 -1 -2 -3 -0 0 0 0 1 0 -1 -2 -3 -3 -3 -5 -8 -7 -5
3 4 4 4 4 3 3 2 1 1 0 0 1 0 -0 0 -0 -0 -1 -1 -2 -2 -1 -0 -1 -0 -1 -0 -1 -1 -2 -4 -4 -6 -7 -12 -14 -16
3 3 3 3 3 3 3 1 1 0 0 0 0 1 0 -1 -2 -2 -2 -2 -1 -2 -1 -1 -0 -0 -1 -1 -1 -2 -3 -4 -7 -10 -13 -14 -16 -19
2 3 2 2 3 2 2 1 0 -0 -0 -0 -0 -1 -3 -2 -3 -1 -1 -2 -1 -1 -1 -1 -1 -1 -2 -2 -2 -2 -3 -4 -9 -12 -14 -17 -20 -23
0 2 2 2 3 2 1 -0 -1 -1 -1 -1 -2 -3 -3 -2 -2 -2 -2 -2 -2 -2 -1 -2 -2 -2 -3 -4 -3 -3 -3 -5 -11 -14 -17 -21 -24 -23
-1 1 1 2 1 0 -0 -1 -1 -2 -2 -2 -2 -3 -3 -3 -2 -2 -3 -2 -2 -2 -2 -2 -4 -4 -5 -5 -5 -4 -4 -6 -12 -16 -21 -23 -23 -22
1 0 0 0 -1 -1 -1 -2 -2 -2 -2 -3 -3 -3 -3 -3 -3 -2 -2 -2 -2 -2 -2 -3 -4 -4 -5 -6 -5 -5 -5 -10 -14 -19 -22 -23 -22 -20
-0 0 -0 -1 -1 -2 -2 -1 -2 -3 -3 -4 -4 -4 -4 -4 -4 -3 -3 -3 -3 -3 -2 -3 -4 -4 -4 -6 -6 -6 -6 -8 -16 -19 -22 -22 -21 -19
-0 -1 -1 -1 -2 -2 -3 -3 -3 -4 -4 -4 -4 -4 -4 -4 -4 -3 -3 -3 -3 -3 -3 -3 -3 -4 -3 -5 -6 -6 -6 -7 -16 -20 -21 -21 -20 -19
-1 -1 -2 -2 -3 -3 -3 -3 -3 -4 -4 -4 -4 -4 -5 -5 -5 -4 -4 -3 -3 -4 -3 -4 -3 -3 -4 -4 -5 -11 -9 -11 -16 -21 -21 -20 -18 -18
-1 -2 -2 -3 -3 -3 -3 -4 -5 -4 -5 -4 -4 -5 -5 -5 -5 -5 -4 -4 -4 -4 -4 -4 -4 -4 -4 -4 -7 -14 -18 -19 -19 -21 -20 -19 -18 -17
-2 -3 -3 -3 -4 -4 -4 -4 -4 -5 -4 -5 -5 -5 -5 -5 -6 -6 -5 -5 -5 -5 -5 -5 -5 -5 -5 -6 -15 -22 -21 -20 -21 -20 -20 -19 -17 -17
-2 -3 -3 -4 -4 -4 -4 -4 -5 -5 -5 -5 -6 -6 -6 -6 -6 -6 -6 -6 -6 -6 -6 -6 -7 -8 -8 -14 -21 -22 -21 -20 -20 -19 -18 -17 -17 -17
-2 -3 -4 -4 -4 -5 -4 -5 -5 -5 -6 -6 -6 -6 -6 -6 -7 -7 -6 -6 -7 -8 -11 -15 -18 -19 -20 -21 -19 -21 -19 -20 -19 -19 -17 -17 -17 -18
-2 -3 -3 -4 -5 -5 -4 -5 -5 -6 -6 -6 -6 -6 -6 -7 -7 -7 -7 -7 -8 -8 -10 -11 -15 -21 -22 -22 -22 -20 -19 -19 -19 -18 -17 -17 -19 -20
-3 -4 -5 -5 -5 -5 -5 -5 -5 -6 -6 -7 -7 -6 -7 -7 -7 -7 -7 -8 -11 -10 -8 -12 -19 -21 -22 -22 -21 -19 -19 -18 -18 -17 -17 -18 -20 -20
-3 -4 -5 -5 -5 -5 -5 -5 -6 -7 -6 -7 -7 -7 -7 -7 -7 -7 -7 -8 -9 -8 -10 -18 -19 -20 -21 -21 -20 -20 -19 -17 -16 -17 -18 -19 -19 -19
-4 -5 -5 -5 -6 -5 -6 -6 -6 -6 -7 -7 -7 -7 -7 -7 -7 -8 -8 -8 -9 -10 -15 -16 -19 -20 -20 -20 -19 -18 -17 -16 -17 -18 -19 -19 -19 -19

GFSNE_850_dewp_291.txt.gz
Dewpoint
6 5 4 4 5 4 1 -0 -1 0 -0 -2 -2 -0 -0 -0 -1 -1 -1 0 0 -1 -3 -2 1 2 1 0 -0 -1 -0 -1 -1 -2 -2 -2 -2 1
5 5 5 4 5 6 4 1 0 0 1 1 0 0 0 0 -1 -1 -1 -0 0 -0 -3 -1 0 1 1 1 1 1 -0 -0 -1 -1 -1 -1 -0 0
5 6 6 6 6 6 5 3 2 1 1 1 0 1 1 1 0 -1 -1 -1 0 -2 -2 -1 -0 1 2 1 0 0 0 -0 -1 -2 -3 -3 -4 -3
4 4 5 5 5 5 5 5 3 2 1 1 1 1 2 2 1 -1 -2 -1 -1 -2 -2 -1 -0 1 2 2 1 1 -0 -1 -1 -1 -2 -3 -4 -2
3 3 4 4 4 4 4 5 5 3 2 2 2 2 2 1 0 0 -1 -0 -1 -1 -2 -3 -2 -1 2 1 1 1 -1 -1 -2 -2 -2 -3 -6 -8
-12 2 3 3 3 4 4 4 4 3 2 2 2 1 1 1 1 0 0 -0 -0 -1 -1 -2 -3 -1 1 0 0 1 -0 -2 -3 -3 -4 -6 -7 -6
-16 -17 -6 1 2 3 3 3 3 3 2 2 1 1 0 0 0 0 0 0 -1 -2 -3 -2 -1 -1 0 -0 0 0 0 -2 -4 -4 -6 -8 -13 -15
-16 -16 -14 -12 -6 1 2 2 3 3 2 2 0 -0 0 0 -0 -0 -1 -1 -2 -3 -2 -1 -1 -1 -1 -0 -0 -1 -1 -2 -4 -7 -11 -13 -15 -17
-10 -11 -10 -9 -4 -1 0 2 2 2 2 1 0 -0 -0 -0 -1 -2 -2 -2 -2 -2 -2 -1 -1 -0 -1 -1 -1 -1 -2 -3 -6 -10 -13 -15 -18 -22
-4 -4 -3 -3 -3 0 1 1 1 1 0 -0 -0 -0 -0 -1 -3 -2 -1 -1 -2 -2 -2 -2 -1 -2 -2 -2 -2 -2 -3 -4 -8 -12 -15 -19 -23 -23
-3 -3 -2 -2 -2 0 0 0 -0 -1 -1 -1 -1 -1 -2 -3 -3 -2 -2 -2 -2 -3 -2 -2 -3 -3 -4 -4 -3 -3 -3 -5 -11 -14 -18 -22 -23 -22
-2 -3 -2 -1 -1 -0 0 -1 -1 -2 -2 -2 -2 -2 -3 -3 -3 -3 -3 -2 -3 -2 -2 -3 -3 -3 -5 -5 -5 -5 -4 -7 -12 -16 -21 -23 -22 -19
-2 -2 -2 -1 -1 -1 -1 -1 -2 -2 -2 -2 -3 -4 -4 -4 -4 -4 -3 -2 -3 -3 -2 -3 -3 -4 -5 -6 -6 -6 -5 -8 -14 -19 -21 -22 -20 -18
-2 -2 -1 -1 -1 -2 -2 -2 -2 -3 -3 -4 -4 -4 -4 -4 -4 -4 -3 -4 -4 -4 -3 -3 -3 -4 -4 -5 -6 -6 -6 -6 -11 -17 -21 -21 -20 -18
-2 -1 -1 -2 -2 -3 -3 -3 -3 -4 -4 -4 -5 -4 -4 -5 -4 -4 -4 -4 -4 -3 -3 -3 -3 -4 -4 -3 -4 -5 -6 -6 -10 -17 -21 -20 -19 -19
-2 -2 -2 -3 -3 -3 -3 -3 -4 -5 -5 -5 -4 -4 -5 -5 -5 -5 -5 -4 -4 -4 -4 -4 -5 -4 -4 -4 -4 -6 -6 -10 -13 -18 -20 -18 -17 -17
-2 -2 -3 -3 -3 -4 -3 -4 -4 -5 -5 -5 -5 -5 -5 -6 -5 -5 -5 -5 -5 -5 -5 -5 -4 -5 -5 -5 -5 -8 -13 -15 -19 -20 -20 -18 -17 -18
-2 -3 -3 -3 -4 -4 -4 -4 -4 -5 -5 -5 -5 -6 -6 -6 -6 -6 -6 -6 -6 -6 -5 -6 -6 -5 -5 -6 -9 -17 -17 -18 -21 -19 -18 -17 -17 -17
-3 -3 -3 -3 -4 -4 -4 -4 -5 -5 -5 -6 -6 -6 -6 -6 -6 -6 -6 -6 -6 -7 -6 -6 -6 -6 -6 -8 -13 -19 -18 -20 -20 -19 -18 -17 -17 -17
-3 -3 -3 -4 -4 -5 -5 -4 -5 -5 -6 -6 -6 -7 -7 -7 -7 -7 -7 -7 -7 -7 -8 -9 -8 -9 -11 -16 -18 -18 -19 -19 -19 -18 -17 -17 -18 -19
-3 -3 -3 -4 -5 -5 -4 -5 -5 -6 -6 -6 -7 -7 -7 -7 -7 -7 -7 -8 -8 -8 -8 -8 -9 -15 -21 -22 -21 -19 -19 -18 -18 -17 -17 -18 -19 -20
-4 -4 -4 -4 -5 -5 -5 -5 -5 -6 -6 -7 -7 -7 -7 -7 -8 -8 -8 -8 -8 -8 -8 -9 -13 -20 -21 -21 -21 -20 -19 -17 -17 -16 -18 -19 -20 -20
-4 -4 -4 -5 -5 -5 -5 -5 -6 -6 -7 -7 -7 -7 -7 -7 -8 -8 -8 -8 -8 -8 -8 -11 -17 -20 -20 -20 -20 -19 -17 -16 -16 -17 -19 -19 -19 -19

GFSNE_850_dewp_294.txt.gz
Dewpoint
4 5 6 5 5 5 5 5 4 3 2 2 1 1 -1 -3 -1 -0 -0 -1 -2 -1 -0 -1 -3 -1 2 2 1 -0 -1 -1 -2 -2 -1 -1 -1 0
1 3 4 5 6 6 6 6 6 5 3 3 2 1 0 -1 -0 -0 0 -1 -1 -1 0 -0 -3 -2 1 2 1 1 0 -0 -0 -0 -1 -2 -3 -2
-25 -11 -1 3 4 4 5 5 5 5 5 5 4 2 1 1 0 1 1 0 -1 -2 -0 -1 -2 -1 0 1 2 1 -0 -1 -0 -1 -2 -2 -3 -2
-19 -13 -10 -0 3 4 3 4 4 4 4 4 4 3 2 1 1 2 2 2 -0 -1 -0 -2 -2 -1 -0 1 2 1 0 -1 -1 -1 -2 -2 -3 -2
-22 -18 -14 -10 -13 -5 2 3 3 3 3 3 3 3 2 2 2 2 1 1 -0 -0 0 -2 -3 -3 -2 -0 2 1 1 -0 -1 -2 -2 -3 -4 -6
-23 -23 -20 -16 -7 -3 -7 -7 0 2 3 3 2 2 2 2 2 1 1 1 -0 0 0 -1 -2 -3 -3 -0 2 0 1 0 -0 -2 -3 -4 -6 -7
-21 -20 -19 -18 -17 -14 -8 -2 -3 -2 2 2 2 1 1 2 2 1 1 -0 -0 0 0 -1 -2 -3 -2 0 0 0 -0 0 -1 -2 -4 -6 -9 -12
-10 -11 -13 -13 -14 -13 -13 -9 -0 1 1 1 1 1 1 1 1 -0 -0 -0 -0 -0 -2 -3 -3 -1 -1 -0 -0 -0 -0 -0 -1 -2 -6 -10 -14 -16
-6 -4 -5 -5 -4 -6 -7 -7 -4 -1 -1 1 1 1 1 1 0 -0 -1 -0 -1 -2 -3 -2 -2 -1 -1 -1 -1 -1 -1 -1 -2 -4 -10 -13 -16 -19
-4 -4 -3 -3 -2 -2 -2 -2 -1 -1 -1 1 1 1 0 -0 -0 -1 -1 -1 -2 -2 -2 -2 -2 -2 -1 -2 -2 -2 -2 -2 -3 -8 -13 -16 -20 -21
-7 -3 -3 -3 -2 -2 -2 -1 -1 -0 0 0 -0 -1 -1 -1 -1 -2 -2 -2 -2 -2 -2 -2 -2 -2 -3 -4 -3 -2 -2 -3 -5 -12 -15 -19 -22 -20
-4 -3 -3 -2 -1 -1 -1 -1 -0 -1 -0 -1 -2 -2 -2 -2 -2 -2 -2 -2 -2 -2 -3 -2 -2 -3 -5 -5 -4 -3 -3 -3 -6 -13 -17 -21 -21 -18
-3 -3 -3 -2 -2 -2 -2 -1 -2 -2 -2 -2 -2 -2 -2 -3 -3 -3 -3 -3 -2 -2 -3 -3 -3 -3 -4 -5 -5 -5 -4 -4 -8 -16 -20 -21 -19 -16
-3 -3 -2 -3 -2 -2 -2 -2 -2 -2 -3 -3 -3 -3 -4 -4 -4 -4 -4 -4 -3 -3 -3 -3 -3 -3 -4 -5 -6 -5 -5 -5 -7 -15 -20 -20 -18 -15
-3 -3 -2 -2 -2 -2 -3 -3 -3 -3 -3 -4 -4 -4 -4 -4 -4 -4 -4 -4 -3 -4 -4 -4 -3 -3 -3 -4 -4 -5 -5 -6 -6 -13 -18 -19 -19 -17
-3 -3 -3 -2 -3 -3 -3 -3 -3 -4 -4 -5 -5 -5 -4 -5 -5 -5 -5 -4 -4 -4 -4 -4 -4 -4 -4 -5 -4 -4 -5 -6 -6 -12 -18 -19 -18 -18
-3 -3 -3 -3 -3 -3 -3 -3 -3 -5 -5 -5 -5 -4 -5 -5 -5 -6 -6 -5 -5 -5 -4 -5 -5 -5 -5 -5 -4 -5 -6 -6 -11 -13 -19 -19 -17 -16
-4 -3 -3 -3 -3 -3 -4 -3 -4 -5 -5 -5 -5 -5 -6 -6 -6 -6 -6 -6 -6 -6 -6 -6 -5 -5 -5 -5 -6 -6 -6 -8 -16 -17 -19 -18 -17 -17
-3 -3 -3 -3 -4 -4 -4 -4 -4 -5 -6 -5 -5 -6 -6 -6 -6 -6 -6 -6 -6 -6 -6 -6 -6 -6 -5 -6 -7 -8 -10 -15 -19 -19 -18 -17 -17 -17
-5 -4 -4 -4 -4 -4 -4 -4 -4 -5 -5 -6 -6 -6 -6 -6 -6 -7 -6 -6 -7 -7 -7 -7 -6 -6 -6 -6 -7 -9 -16 -18 -19 -19 -18 -17 -17 -17
-5 -5 -4 -4 -4 -4 -5 -5 -5 -5 -6 -6 -6 -7 -7 -7 -7 -7 -7 -7 -7 -7 -7 -7 -7 -7 -8 -10 -16 -16 -18 -18 -18 -17 -17 -17 -17 -18
-5 -5 -4 -4 -4 -5 -5 -5 -5 -6 -6 -6 -7 -7 -7 -7 -7 -8 -8 -8 -8 -8 -8 -8 -8 -10 -13 -19 -19 -19 -18 -18 -17 -17 -16 -17 -18 -19
-5 -5 -5 -5 -4 -5 -5 -5 -5 -6 -6 -7 -7 -7 -7 -7 -8 -8 -8 -8 -8 -8 -8 -8 -10 -15 -20 -20 -20 -19 -18 -17 -17 -16 -17 -18 -19 -19

GFSNE_850_dewp_297.txt.gz
Dewpoint
-15 -7 4 5 5 5 5 4 4 4 4 4 4 4 3 2 3 2 0 -2 -1 -1 -1 -2 -2 -2 -3 -0 2 2 1 -0 -1 -1 -2 -1 -1 1
-16 -10 -4 -5 -2 2 3 3 4 4 4 4 4 4 4 2 2 2 2 -0 -0 0 -0 -1 -1 -1 -2 -1 1 2 1 0 0 -1 -1 -1 -2 -3
-29 -26 -26 -24 -21 -18 -17 -3 1 3 3 -0 2 3 4 4 4 3 1 1 2 1 1 1 -1 -0 -2 -2 1 2 2 1 -0 -1 -1 -1 -2 -3
-27 -26 -26 -24 -21 -18 -14 -10 -4 -5 -3 1 2 3 2 2 3 3 2 2 2 2 2 2 0 -0 -1 -1 -0 2 2 1 0 -1 -1 -2 -2 -2
-26 -24 -23 -22 -21 -17 -8 -2 -1 -2 -2 -3 -5 -3 1 3 2 2 3 2 2 2 1 0 0 0 -0 -1 -1 1 1 2 1 -1 -1 -2 -3 -4
-21 -17 -13 -11 -9 -8 -9 -9 -8 -5 -3 0 -0 -1 -2 1 0 1 2 1 1 1 1 -0 0 -0 -1 -3 -3 -1 1 1 0 -0 -2 -3 -4 -6
-19 -16 -15 -15 -14 -11 -7 -6 -3 -2 -2 -3 -1 -0 -1 0 1 1 1 1 1 1 -0 0 0 -0 -0 -2 -1 1 1 0 -0 -0 -1 -3 -6 -8
-19 -21 -23 -19 -10 -6 -4 -3 -2 -2 -2 -1 -2 -1 0 -0 1 1 1 1 0 -0 -0 -0 -0 -0 -2 -1 0 0 -1 -0 -0 -1 -2 -3 -10 -13
-18 -14 -10 -8 -7 -4 -3 -2 -2 -2 -1 -1 -1 -1 -0 -1 0 0 0 -0 -1 -1 -1 -1 -1 -2 -1 -1 -1 -1 -1 -1 -1 -2 -3 -10 -14 -16
-16 -10 -9 -13 -4 -3 -2 -2 -2 -1 -2 -1 -1 -2 -1 0 1 0 -0 -1 -1 -1 -1 -2 -2 -2 -2 -2 -2 -1 -1 -2 -2 -3 -8 -14 -17 -19
-17 -10 -9 -12 -4 -3 -2 -2 -2 -2 -1 -1 -1 -0 -0 -1 -1 -1 -2 -1 -2 -2 -2 -2 -2 -3 -3 -3 -3 -3 -3 -2 -2 -5 -13 -17 -19 -19
-16 -11 -8 -5 -3 -3 -2 -3 -2 -1 -1 -2 -1 -1 -1 -2 -2 -2 -2 -2 -2 -2 -2 -2 -3 -3 -5 -5 -4 -4 -4 -4 -4 -9 -16 -18 -18 -19
-11 -15 -11 -6 -3 -3 -2 -2 -2 -2 -2 -2 -2 -2 -2 -2 -2 -2 -2 -2 -2 -2 -2 -3 -3 -3 -4 -5 -5 -5 -5 -4 -6 -10 -15 -19 -18 -16
-7 -9 -8 -5 -3 -3 -2 -2 -2 -3 -3 -3 -3 -3 -3 -3 -4 -4 -3 -3 -3 -3 -3 -3 -3 -3 -3 -5 -6 -6 -6 -5 -6 -10 -13 -18 -18 -16
-8 -6 -6 -5 -3 -3 -3 -3 -3 -3 -3 -3 -4 -4 -4 -4 -4 -4 -4 -4 -4 -4 -3 -3 -3 -3 -3 -3 -4 -5 -6 -6 -6 -8 -16 -17 -19 -17
-8 -6 -6 -6 -3 -3 -3 -3 -3 -4 -4 -4 -5 -5 -5 -5 -5 -5 -5 -4 -4 -4 -4 -4 -4 -3 -4 -4 -4 -5 -5 -6 -6 -8 -16 -18 -19 -18
-6 -6 -6 -6 -4 -3 -3 -3 -3 -4 -4 -5 -5 -5 -5 -5 -5 -6 -6 -5 -5 -5 -4 -4 -4 -4 -5 -5 -5 -5 -6 -6 -6 -7 -15 -18 -17 -17
-6 -5 -5 -6 -5 -4 -4 -4 -4 -4 -5 -5 -5 -5 -5 -6 -6 -6 -6 -6 -6 -6 -5 -5 -5 -6 -6 -6 -6 -5 -6 -6 -8 -10 -17 -18 -16 -16
-6 -6 -6 -5 -5 -4 -4 -4 -4 -4 -5 -5 -5 -5 -6 -6 -6 -6 -6 -6 -6 -6 -6 -7 -7 -6 -6 -7 -8 -7 -6 -7 -10 -15 -18 -17 -17 -17
-7 -6 -6 -5 -5 -5 -5 -4 -4 -5 -5 -5 -5 -6 -6 -6 -7 -7 -6 -6 -7 -7 -7 -7 -7 -7 -6 -6 -7 -8 -8 -10 -17 -19 -19 -18 -17 -16
-7 -6 -6 -5 -5 -5 -5 -5 -5 -5 -5 -5 -6 -6 -7 -7 -7 -7 -7 -7 -7 -8 -8 -8 -7 -7 -6 -6 -6 -8 -11 -16 -18 -18 -18 -17 -17 -16
-7 -7 -6 -5 -5 -5 -5 -5 -5 -5 -5 -6 -6 -7 -7 -7 -7 -7 -7 -7 -8 -8 -7 -7 -7 -7 -7 -8 -10 -11 -17 -17 -17 -17 -16 -17 -17 -18
-7 -7 -6 -6 -5 -5 -5 -5 -5 -5 -6 -6 -7 -7 -7 -8 -7 -8 -8 -8 -8 -8 -8 -8 -8 -9 -11 -17 -18 -18 -18 -17 -17 -17 -16 -17 -19 -20